Meath Environmental Platform

Observations for Trim Market St

Time AQI Temp °C Hum % Pres Pa CO μg/m³ H₂S μg/m³ NO μg/m³ NO₂ μg/m³ O₃ μg/m³ SO₂ μg/m³ PM1 μg/m³ PM2.5 μg/m³ PM10 μg/m³
Wednesday 15 July 2026
02:10 1 18 69 55,977 0.13 0 0 5.82 25.16 0 7.13 9.42 15.1
02:09 1 18 69 56,022 0.13 0 0 4.52 24.43 0 6.41 9.42 13.84
02:05 1 18 69 56,121 0.13 0 0 6.05 28.88 0 6.41 9.43 16.38
02:01 1 18 69 56,225 0.13 0 0 5.07 25.74 0 6.41 10.91 15.76
02:00 1 18 69 56,238 0.13 0 0 5.18 26.37 0 5.7 9.45 14.5
01:58 1 18 69 56,278 0.14 0 0 6.58 27.18 0 7.13 8.96 12.6
01:50 1 18 68 56,503 0.14 0 0 6.03 26.75 0 6.41 9.97 13.89
01:49 1 18 68 56,522 0.14 0 0 4.93 28.65 0 5.7 9.48 13.89
01:48 1 18 68 56,546 0.13 0 0 8.14 23.54 0 7.13 9.48 15.17
01:47 1 18 68 56,578 0.14 0 0 6.35 27.23 0 5.7 9 13.27
01:46 1 18 68 56,589 0.13 0 0 4.54 26.41 0 5.7 9.48 13.9
01:45 1 18 68 56,600 0.14 0 0 7.25 24 0 6.41 9 13.27
01:44 1 18 68 56,628 0.15 0 0 6.15 26.11 0 6.41 10.96 16.45
01:43 1 18 68 56,640 0.13 0 0 4.76 24.45 0 6.41 12.92 19.02
01:42 1 18 68 56,661 0.14 0 0 8.27 28.26 0 6.41 10.97 15.19
01:41 1 18 68 56,690 0.14 0 0 7.37 24.96 0 6.41 7.55 12.64
01:40 1 18 68 56,706 0.13 0 0 5.68 26.71 0 7.13 10.98 16.48
01:39 1 18 68 56,737 0.14 0 0 6.48 24.46 0 7.13 10.49 15.2
01:38 1 18 68 56,754 0.14 0 0 7.18 25.14 0 6.41 10.98 15.2
01:37 1 18 68 56,768 0.14 0 0 5.69 31.54 0 8.55 13.92 19.05